You are not logged in, Click here to log in
杜塞道夫機場 / EDDL 德國北萊茵-威斯伐倫州首府杜塞道夫
ICAO: EDDL Country: 德國北萊茵-威斯伐倫州首府杜塞道夫
Latitude: 51.2828 Longitude: 6.76227
Total Arrivals: 4 Total Departures: 3
Latest Arrival: FS18 (ENGM-EDDL)ALAN. LIU Latest Departure: FS27 (EDDL-LSZH)ALAN. LIU
Scenery:
METAR : EDDL 110350Z VRB01KT 9999 FEW020 08/08 Q1022 NOSIG

杜塞道夫機場

You are accessing this site from IP address 34.229.119.29. Virtual Airline. CMS by phpVMS.Website designed by Zumeweb and edited by Theo Bearman.
There is 1 User(s) Online: | Lun Wang | and 17 Guest(s) Online.
All information on this site is for fight simulation purposes only. This site is for flight logging for pilots of Virtual Airline&模擬飛行論壇 FlySim only.